W0WC Weather Reports


Display with metric or nautical units.
time (UTC)temp
F
wind
direction
speed
MPH
gust
MPH
rain 1hr
in
rain 24hr
in
rain mn
in
humidity
%
barometer
mb
20260504021601 71 143 2.0 3.0 0.00 0.00 0.00 51 1011.3
20260504021058 71 81 2.0 2.0 0.00 0.00 0.00 51 1011.2
20260504020555 71 51 2.0 3.0 0.00 0.00 0.00 51 1011.2
20260504020051 71 177 2.0 3.0 0.00 0.00 0.00 51 1011.2
20260504015548 71 65 2.0 2.0 0.00 0.00 0.00 51 1011.1
20260504015043 71 122 1.0 2.0 0.00 0.00 0.00 51 1011.2
20260504014540 71 108 2.0 2.0 0.00 0.00 0.00 51 1011.1
20260504014037 72 66 1.0 1.0 0.00 0.00 0.00 51 1011.1
20260504013535 72 37 1.0 1.0 0.00 0.00 0.00 51 1011.2
20260504013032 72 29 1.0 1.0 0.00 0.00 0.00 50 1011.1
20260504012529 73 100 2.0 3.0 0.00 0.00 0.00 49 1011.0
20260504012027 73 63 2.0 2.0 0.00 0.00 0.00 48 1011.1
20260504011523 74 54 1.0 2.0 0.00 0.00 0.00 47 1011.1
20260504011020 74 45 2.0 2.0 0.00 0.00 0.00 46 1011.0
20260504010515 74 173 1.0 2.0 0.00 0.00 0.00 45 1010.9
20260504010011 75 47 2.0 2.0 0.00 0.00 0.00 45 1011.1
20260504005508 75 46 1.0 2.0 0.00 0.00 0.00 45 1011.0
20260504005006 75 179 2.0 3.0 0.00 0.00 0.00 44 1011.1
20260504004503 75 66 1.0 2.0 0.00 0.00 0.00 45 1011.1
20260504004000 76 210 0.0 1.0 0.00 0.00 0.00 44 1011.1
20260504003456 76 219 3.0 3.0 0.00 0.00 0.00 44 1011.1
20260504002953 76 84 2.0 2.0 0.00 0.00 0.00 44 1011.2
20260504002450 76 78 2.0 3.0 0.00 0.00 0.00 43 1011.2
20260504001948 77 161 4.0 4.0 0.00 0.00 0.00 43 1011.3
20260504001445 77 229 2.0 2.0 0.00 0.00 0.00 43 1011.2
20260504000942 77 155 2.0 3.0 0.00 0.00 0.00 42 1011.3
20260504000439 77 135 2.0 2.0 0.00 0.00 0.00 42 1011.5
20260503235936 77 172 3.0 4.0 0.00 0.00 0.00 41 1011.3
20260503235433 77 169 4.0 6.0 0.00 0.00 0.00 41 1011.5
20260503234931 78 200 5.0 6.0 0.00 0.00 0.00 40 1011.5
20260503234428 78 145 7.0 11.0 0.00 0.00 0.00 40 1011.6
20260503233926 78 222 5.0 8.0 0.00 0.00 0.00 40 1011.7
20260503233422 78 76 4.0 6.0 0.00 0.00 0.00 40 1011.7
20260503232919 79 237 6.0 7.0 0.00 0.00 0.00 40 1011.8
20260503232416 79 217 4.0 4.0 0.00 0.00 0.00 39 1011.6
20260503231914 79 192 4.0 6.0 0.00 0.00 0.00 39 1011.8
20260503231411 80 165 6.0 8.0 0.00 0.00 0.00 38 1011.8
20260503230907 80 168 4.0 7.0 0.00 0.00 0.00 38 1011.9
20260503230404 80 250 5.0 7.0 0.00 0.00 0.00 38 1011.8
20260503225901 79 330 1.0 2.0 0.00 0.00 0.00 38 1012.0
20260503225357 80 182 7.0 9.0 0.00 0.00 0.00 37 1011.9
20260503224854 80 217 8.0 9.0 0.00 0.00 0.00 37 1012.1
20260503224351 80 220 8.0 10.0 0.00 0.00 0.00 36 1011.9
20260503223849 80 207 3.0 4.0 0.00 0.00 0.00 37 1012.1
20260503223347 80 323 2.0 3.0 0.00 0.00 0.00 37 1012.0
20260503222842 80 232 4.0 7.0 0.00 0.00 0.00 37 1012.0
20260503222340 80 203 8.0 13.0 0.00 0.00 0.00 36 1012.1
20260503221838 80 146 2.0 2.0 0.00 0.00 0.00 37 1012.2
20260503221337 80 31 2.0 3.0 0.00 0.00 0.00 35 1012.2
20260503220832 80 176 2.0 3.0 0.00 0.00 0.00 35 1012.3
20260503220329 81 218 9.0 11.0 0.00 0.00 0.00 34 1012.3
20260503215826 82 27 2.0 3.0 0.00 0.00 0.00 36 1012.4
20260503215323 82 216 9.0 16.0 0.00 0.00 0.00 34 1012.5
20260503214821 82 13 3.0 3.0 0.00 0.00 0.00 34 1012.5
20260503214318 82 241 5.0 7.0 0.00 0.00 0.00 34 1012.5
20260503213815 82 221 7.0 9.0 0.00 0.00 0.00 34 1012.5
20260503213313 82 170 2.0 3.0 0.00 0.00 0.00 34 1012.7
20260503212810 81 228 7.0 10.0 0.00 0.00 0.00 34 1012.9
20260503212308 81 230 2.0 4.0 0.00 0.00 0.00 34 1013.0
20260503211805 81 233 4.0 6.0 0.00 0.00 0.00 34 1012.8
20260503211301 82 310 10.0 15.0 0.00 0.00 0.00 33 1013.0
20260503210801 82 263 5.0 7.0 0.00 0.00 0.00 35 1013.2
20260503210259 82 280 7.0 11.0 0.00 0.00 0.00 34 1013.2
20260503205754 82 327 3.0 3.0 0.00 0.00 0.00 37 1013.6
20260503205251 82 228 4.0 6.0 0.00 0.00 0.00 36 1013.5
20260503204747 82 204 3.0 4.0 0.00 0.00 0.00 35 1013.5
20260503204245 81 279 3.0 4.0 0.00 0.00 0.00 37 1013.5
20260503203742 81 212 7.0 14.0 0.00 0.00 0.00 37 1013.5
20260503203239 81 358 4.0 7.0 0.00 0.00 0.00 36 1013.6
20260503202736 82 211 6.0 8.0 0.00 0.00 0.00 34 1013.8
20260503202234 81 225 4.0 7.0 0.00 0.00 0.00 36 1013.8
20260503201732 81 193 5.0 7.0 0.00 0.00 0.00 37 1014.0
20260503201229 80 270 2.0 4.0 0.00 0.00 0.00 35 1013.9
20260503200726 80 219 8.0 9.0 0.00 0.00 0.00 37 1014.0
20260503200222 80 238 9.0 11.0 0.00 0.00 0.00 36 1014.2
20260503195719 81 189 4.0 6.0 0.00 0.00 0.00 36 1014.2
20260503195216 81 14 2.0 3.0 0.00 0.00 0.00 37 1014.2
20260503194713 80 281 2.0 3.0 0.00 0.00 0.00 38 1014.5
20260503194209 80 3 2.0 4.0 0.00 0.00 0.00 39 1014.2
20260503193705 81 234 9.0 11.0 0.00 0.00 0.00 35 1014.5
20260503193201 80 275 4.0 4.0 0.00 0.00 0.00 38 1014.8
20260503192657 79 220 12.0 14.0 0.00 0.00 0.00 37 1014.6
20260503192152 80 201 6.0 8.0 0.00 0.00 0.00 37 1014.7
20260503191649 80 234 6.0 7.0 0.00 0.00 0.00 37 1014.9
20260503191147 79 209 3.0 7.0 0.00 0.00 0.00 38 1014.7
20260503190643 79 202 5.0 8.0 0.00 0.00 0.00 37 1015.0
20260503190140 79 201 5.0 8.0 0.00 0.00 0.00 37 1015.0
20260503185637 79 239 3.0 6.0 0.00 0.00 0.00 39 1015.1
20260503185132 79 320 5.0 7.0 0.00 0.00 0.00 38 1015.0
20260503184627 78 292 4.0 4.0 0.00 0.00 0.00 38 1015.2
20260503184124 79 208 5.0 7.0 0.00 0.00 0.00 38 1015.3
20260503183620 79 220 4.0 4.0 0.00 0.00 0.00 38 1015.4
20260503183118 78 295 2.0 3.0 0.00 0.00 0.00 41 1015.2
20260503182616 77 218 6.0 11.0 0.00 0.00 0.00 38 1015.3
20260503182114 78 217 8.0 10.0 0.00 0.00 0.00 38 1015.6
20260503181610 78 236 4.0 8.0 0.00 0.00 0.00 38 1015.7
20260503181107 78 86 3.0 4.0 0.00 0.00 0.00 39 1015.6
20260503180605 77 218 6.0 9.0 0.00 0.00 0.00 38 1015.7
20260503175559 76 200 3.0 4.0 0.00 0.00 0.00 40 1015.9
20260503175056 77 208 7.0 8.0 0.00 0.00 0.00 39 1016.0
20260503174553 76 226 3.0 4.0 0.00 0.00 0.00 40 1015.9
20260503174049 76 212 5.0 8.0 0.00 0.00 0.00 38 1016.1
20260503173545 76 211 4.0 6.0 0.00 0.00 0.00 39 1016.1
20260503173041 74 303 4.0 7.0 0.00 0.00 0.00 39 1016.2
20260503172539 75 223 13.0 16.0 0.00 0.00 0.00 39 1016.3
20260503172036 74 239 4.0 4.0 0.00 0.00 0.00 42 1016.5
20260503171532 74 235 7.0 9.0 0.00 0.00 0.00 42 1016.4
20260503171030 74 221 6.0 10.0 0.00 0.00 0.00 40 1016.6
20260503170526 74 237 4.0 7.0 0.00 0.00 0.00 41 1016.7
20260503150918 67 174 4.0 6.0 0.00 0.00 0.00 46 1017.5
20260503150415 67 103 5.0 7.0 0.00 0.00 0.00 46 1017.6
20260503131308 57 178 4.0 4.0 0.00 0.00 0.00 51 1018.4
20260503130805 57 210 2.0 3.0 0.00 0.00 0.00 52 1018.5
20260503130302 56 175 6.0 9.0 0.00 0.00 0.00 52 1018.5
20260503110656 47 50 2.0 2.0 0.00 0.00 0.00 65 1018.4
20260503110153 47 203 2.0 3.0 0.00 0.00 0.00 64 1018.3
20260503100120 48 186 3.0 4.0 0.00 0.00 0.00 64 1018.5
20260503081509 48 69 2.0 2.0 0.00 0.00 0.00 62 1019.2
20260503081007 48 50 1.0 1.0 0.00 0.00 0.00 62 1019.2
20260503080503 48 61 2.0 3.0 0.00 0.00 0.00 64 1019.3
20260503072939 48 51 1.0 1.0 0.00 0.00 0.00 65 1019.4
20260503072437 47 66 3.0 3.0 0.00 0.00 0.00 66 1019.4
20260503071934 46 49 1.0 1.0 0.00 0.00 0.00 69 1019.4
20260503071430 46 53 1.0 1.0 0.00 0.00 0.00 70 1019.5
20260503070926 46 47 1.0 1.0 0.00 0.00 0.00 71 1019.6
20260503070424 46 69 1.0 1.0 0.00 0.00 0.00 73 1019.5
20260503054837 46 50 0.0 0.0 0.00 0.00 0.00 80 1020.0
20260503054333 46 50 0.0 0.0 0.00 0.00 0.00 80 1020.2
20260503053831 46 50 0.0 0.0 0.00 0.00 0.00 79 1020.2
20260503053329 46 50 0.0 0.0 0.00 0.00 0.00 78 1020.2
20260503052826 47 50 0.0 0.0 0.00 0.00 0.00 78 1020.1
20260503052322 46 39 0.0 0.0 0.00 0.00 0.00 79 1020.4
20260503051819 46 36 0.0 0.0 0.00 0.00 0.00 80 1020.4
20260503051315 47 34 0.0 0.0 0.00 0.00 0.00 80 1020.4
20260503050812 47 34 0.0 0.0 0.00 0.00 0.00 78 1020.4
20260503050308 48 34 0.0 0.0 0.00 0.00 0.00 77 1020.1
20260503045806 48 33 0.0 0.0 0.00 0.00 0.00 75 1020.4
20260503045305 48 34 0.0 0.0 0.00 0.00 0.00 75 1020.3
20260503044759 48 34 0.0 0.0 0.00 0.00 0.00 75 1020.5
20260503044257 48 33 0.0 0.0 0.00 0.00 0.00 75 1020.5
20260503043754 48 33 0.0 0.0 0.00 0.00 0.00 75 1020.3
20260503043251 48 33 0.0 0.0 0.00 0.00 0.00 74 1020.4
20260503042746 47 30 0.0 0.0 0.00 0.00 0.00 77 1020.3
20260503042244 47 30 0.0 0.0 0.00 0.00 0.00 78 1020.3
20260503041739 47 22 0.0 0.0 0.00 0.00 0.00 77 1020.2
20260503041237 47 23 0.0 0.0 0.00 0.00 0.00 78 1020.3
20260503040735 48 21 0.0 0.0 0.00 0.00 0.00 77 1020.3
20260503040232 48 21 0.0 0.0 0.00 0.00 0.00 75 1020.3
20260503035729 48 21 0.0 0.0 0.00 0.00 0.00 74 1020.2
20260503035227 48 22 0.0 0.0 0.00 0.00 0.00 74 1020.4
20260503034724 48 22 0.0 0.0 0.00 0.00 0.00 74 1020.3
20260503034220 48 23 0.0 0.0 0.00 0.00 0.00 74 1020.4
20260503033718 48 349 0.0 0.0 0.00 0.00 0.00 73 1020.7
20260503033210 48 359 0.0 0.0 0.00 0.00 0.00 73 1020.6
20260503032708 49 359 0.0 0.0 0.00 0.00 0.00 72 1020.3
20260503032207 49 359 0.0 0.0 0.00 0.00 0.00 72 1020.3
20260503031703 49 357 0.0 0.0 0.00 0.00 0.00 70 1020.3
20260503031202 49 359 0.0 0.0 0.00 0.00 0.00 69 1020.3
20260503030657 49 356 0.0 0.0 0.00 0.00 0.00 68 1020.4
20260503030154 49 359 0.0 0.0 0.00 0.00 0.00 71 1020.4
20260503025651 49 359 0.0 0.0 0.00 0.00 0.00 70 1020.2
20260503025149 49 356 0.0 0.0 0.00 0.00 0.00 67 1020.3
20260503024645 50 356 0.0 0.0 0.00 0.00 0.00 65 1020.3
20260503024142 50 357 0.0 0.0 0.00 0.00 0.00 65 1020.3
20260503023639 50 355 0.0 0.0 0.00 0.00 0.00 64 1020.4
20260503023136 51 356 0.0 0.0 0.00 0.00 0.00 65 1020.3
20260503022632 51 356 0.0 0.0 0.00 0.00 0.00 64 1020.1
20260503022131 51 359 0.0 0.0 0.00 0.00 0.00 64 1020.0